Fergus Falls, MN

9:50 AM CST on November 20, 2017 (GMT -0600)
Fergus Falls Municipal-Mickelson

Weather History for KFFM - May, 2014

Change the Weather History Date:

Friday, May 16, 2014

  Actual Average Record
Temperature  
Mean Temperature 42 °F -  
Max Temperature 57 °F 70 °F 87 °F (1972)
Min Temperature 26 °F 44 °F 26 °F (2014)
Degree Days  
Heating Degree Days 24    
Moisture  
Dew Point 25 °F    
Average Humidity 49    
Maximum Humidity 86    
Minimum Humidity 26    
Precipitation  
Precipitation 0.00 in - - ()
Sea Level Pressure  
Sea Level Pressure 30.06 in    
Wind  
Wind Speed 4 mph (NNW)    
Max Wind Speed 15 mph    
Max Gust Speed 22 mph    
Visibility 10 miles    
Events      
Averages and records for this station are not official NWS values.
T = Trace of Precipitation, MM = Missing Value Source: NWS Daily Summary

Daily Weather History Graph

Daily Weather History Graph

Search for Another Location

Airport or City:

Trip Planner

Search our weather history database for the weather conditions in past years. The results will help you decide how hot, cold, wet, or windy it might be!

Date:

Astronomy

May. 16, 2014 Rise Set
Actual Time 5:50 AM CDT 8:52 PM CDT
Civil Twilight 5:14 AM CDT 9:27 PM CDT
Nautical Twilight 4:29 AM CDT 10:13 PM CDT
Astronomical Twilight 3:34 AM CDT 11:09 PM CDT
Moon 11:00 PM CDT (5/16) 7:33 AM CDT (5/16)
Length of Visible Light 16h 13m
Length of Day
15h 01m
Waning Gibbous, 95% of the Moon is Illuminated
May 16
Waning Gibbous
May 21
Last Quarter
May 28
New
Jun 5
First Quarter
Jun 12
Full

Hourly Weather History & Observations

Time (CDT) Temp. Windchill Dew Point Humidity Pressure Visibility Wind Dir Wind Speed Gust Speed Precip Events Conditions
12:13 AM 37.4 °F 33.8 °F 26.6 °F 65% 30.12 in 10.0 mi North 4.6 mph - N/A   Clear
12:33 AM 35.6 °F - 26.6 °F 70% 30.12 in 10.0 mi Calm Calm - N/A   Clear
1:13 AM 35.6 °F - 24.8 °F 65% 30.12 in 10.0 mi Calm Calm - N/A   Clear
1:53 AM 33.8 °F - 24.8 °F 70% 30.10 in 10.0 mi Calm Calm - N/A   Clear
2:13 AM 32.0 °F - 24.8 °F 75% 30.10 in 10.0 mi Calm Calm - N/A   Clear
2:33 AM 33.8 °F - 24.8 °F 70% 30.10 in 10.0 mi Calm Calm - N/A   Clear
3:13 AM 32.0 °F - 26.6 °F 80% 30.10 in 10.0 mi Calm Calm - N/A   Clear
3:33 AM 33.8 °F - 26.6 °F 75% 30.09 in 10.0 mi Calm Calm - N/A   Clear
3:53 AM 30.2 °F - 26.6 °F 86% 30.09 in 10.0 mi Calm Calm - N/A   Clear
4:13 AM 26.6 °F 22.6 °F 23.0 °F 86% 30.10 in 10.0 mi WNW 3.5 mph - N/A   Clear
4:33 AM 30.2 °F 26.7 °F 24.8 °F 80% 30.09 in 10.0 mi WNW 3.5 mph - N/A   Clear
4:53 AM 33.8 °F 27.7 °F 24.8 °F 70% 30.10 in 10.0 mi NNW 6.9 mph - N/A   Clear
5:13 AM 33.8 °F - 26.6 °F 75% 30.09 in 10.0 mi Calm Calm - N/A   Clear
5:33 AM 33.8 °F 29.6 °F 24.8 °F 70% 30.09 in 10.0 mi NNE 4.6 mph - N/A   Clear
5:53 AM 32.0 °F 27.5 °F 24.8 °F 75% 30.09 in 10.0 mi NE 4.6 mph - N/A   Clear
6:13 AM 33.8 °F 29.6 °F 24.8 °F 70% 30.09 in 10.0 mi NNE 4.6 mph - N/A   Clear
6:33 AM 33.8 °F 29.6 °F 24.8 °F 70% 30.09 in 10.0 mi NE 4.6 mph - N/A   Clear
6:53 AM 33.8 °F 30.8 °F 24.8 °F 70% 30.10 in 10.0 mi North 3.5 mph - N/A   Clear
7:13 AM 35.6 °F - 26.6 °F 70% 30.10 in 10.0 mi Calm Calm - N/A   Clear
7:33 AM 37.4 °F 33.8 °F 28.4 °F 70% 30.10 in 10.0 mi North 4.6 mph - N/A   Clear
7:53 AM 39.2 °F 33.6 °F 28.4 °F 65% 30.10 in 10.0 mi NNW 8.1 mph - N/A   Clear
8:13 AM 41.0 °F 35.2 °F 26.6 °F 57% 30.10 in 10.0 mi NNW 9.2 mph - N/A   Clear
8:33 AM 42.8 °F 38.0 °F 28.4 °F 57% 30.10 in 10.0 mi North 8.1 mph - N/A   Clear
8:53 AM 42.8 °F 37.5 °F 28.4 °F 57% 30.10 in 10.0 mi NNW 9.2 mph - N/A   Clear
9:13 AM 44.6 °F 39.7 °F 28.4 °F 53% 30.10 in 10.0 mi NNW 9.2 mph - N/A   Clear
9:33 AM 44.6 °F 39.7 °F 26.6 °F 49% 30.10 in 10.0 mi NNW 9.2 mph - N/A   Clear
9:53 AM 46.4 °F 41.5 °F 26.6 °F 46% 30.09 in 10.0 mi NNW 10.4 mph - N/A   Clear
10:13 AM 46.4 °F 42.4 °F 24.8 °F 43% 30.09 in 10.0 mi NNW 8.1 mph - N/A   Clear
10:33 AM 48.2 °F - 24.8 °F 40% 30.09 in 10.0 mi North 10.4 mph - N/A   Clear
10:53 AM 48.2 °F - 23.0 °F 37% 30.09 in 10.0 mi NNW 6.9 mph - N/A   Scattered Clouds
11:13 AM 48.2 °F - 21.2 °F 34% 30.09 in 10.0 mi NNW 9.2 mph - N/A   Scattered Clouds
11:33 AM 48.2 °F - 24.8 °F 40% 30.08 in 10.0 mi NW 9.2 mph - N/A   Mostly Cloudy
11:53 AM 48.2 °F - 23.0 °F 37% 30.08 in 10.0 mi NNW 8.1 mph - N/A   Overcast
12:13 PM 48.2 °F - 21.2 °F 34% 30.08 in 10.0 mi WNW 4.6 mph - N/A   Overcast
12:33 PM 48.2 °F - 21.2 °F 34% 30.08 in 10.0 mi North 6.9 mph - N/A   Mostly Cloudy
12:53 PM 50.0 °F - 21.2 °F 32% 30.07 in 10.0 mi NNW 8.1 mph 18.4 mph N/A   Mostly Cloudy
1:13 PM 51.8 °F - 21.2 °F 30% 30.07 in 10.0 mi NNE 6.9 mph - N/A   Mostly Cloudy
1:33 PM 51.8 °F - 21.2 °F 30% 30.06 in 10.0 mi North 6.9 mph - N/A   Mostly Cloudy
1:53 PM 51.8 °F - 21.2 °F 30% 30.06 in 10.0 mi North 9.2 mph - N/A   Mostly Cloudy
2:13 PM 51.8 °F - 21.2 °F 30% 30.06 in 10.0 mi NW 10.4 mph - N/A   Mostly Cloudy
2:33 PM 51.8 °F - 21.2 °F 30% 30.06 in 10.0 mi North 8.1 mph - N/A   Overcast
3:13 PM 53.6 °F - 23.0 °F 30% 30.05 in 10.0 mi NNW 10.4 mph - N/A   Mostly Cloudy
3:33 PM 51.8 °F - 23.0 °F 33% 30.05 in 10.0 mi NW 6.9 mph 16.1 mph N/A   Mostly Cloudy
3:53 PM 53.6 °F - 23.0 °F 30% 30.04 in 10.0 mi NNW 9.2 mph - N/A   Mostly Cloudy
4:13 PM 55.4 °F - 24.8 °F 31% 30.03 in 10.0 mi NW 15.0 mph - N/A   Scattered Clouds
4:33 PM 53.6 °F - 24.8 °F 33% 30.03 in 10.0 mi NW 8.1 mph - N/A   Scattered Clouds
4:53 PM 55.4 °F - 24.8 °F 31% 30.03 in 10.0 mi NW 5.8 mph - N/A   Mostly Cloudy
5:13 PM 55.4 °F - 21.2 °F 26% 30.03 in 10.0 mi NNW 11.5 mph 17.3 mph N/A   Mostly Cloudy
5:33 PM 55.4 °F - 23.0 °F 29% 30.02 in 10.0 mi North 8.1 mph 21.9 mph N/A   Mostly Cloudy
5:53 PM 57.2 °F - 24.8 °F 29% 30.02 in 10.0 mi WNW 12.7 mph 19.6 mph N/A   Mostly Cloudy
6:13 PM 55.4 °F - 24.8 °F 31% 30.01 in 10.0 mi NW 11.5 mph 19.6 mph N/A   Scattered Clouds
6:33 PM 55.4 °F - 23.0 °F 29% 30.01 in 10.0 mi NW 6.9 mph - N/A   Scattered Clouds
6:53 PM 55.4 °F - 24.8 °F 31% 30.01 in 10.0 mi NW 10.4 mph - N/A   Mostly Cloudy
7:13 PM 55.4 °F - 24.8 °F 31% 30.01 in 10.0 mi WNW 8.1 mph - N/A   Scattered Clouds
7:33 PM 55.4 °F - 24.8 °F 31% 30.01 in 10.0 mi NW 5.8 mph - N/A   Clear
7:53 PM 53.6 °F - 26.6 °F 35% 30.01 in 10.0 mi NNW 6.9 mph - N/A   Scattered Clouds
8:13 PM 53.6 °F - 26.6 °F 35% 30.01 in 10.0 mi WNW 3.5 mph - N/A   Scattered Clouds
8:33 PM 51.8 °F - 28.4 °F 41% 30.01 in 10.0 mi WNW 3.5 mph - N/A   Clear
8:53 PM 51.8 °F - 26.6 °F 38% 30.01 in 10.0 mi Calm Calm - N/A   Clear
9:13 PM 50.0 °F - 26.6 °F 40% 30.01 in 10.0 mi Calm Calm - N/A   Scattered Clouds
9:33 PM 46.4 °F - 30.2 °F 53% 30.02 in 10.0 mi Calm Calm - N/A   Clear
10:13 PM 50.0 °F - 26.6 °F 40% 30.03 in 10.0 mi Calm Calm - N/A   Clear
10:33 PM 46.4 °F - 28.4 °F 50% 30.03 in 10.0 mi Calm Calm - N/A   Clear
10:53 PM 48.2 °F - 26.6 °F 43% 30.03 in 10.0 mi Calm Calm - N/A   Clear
11:13 PM 46.4 °F - 26.6 °F 46% 30.02 in 10.0 mi Calm Calm - N/A   Clear
11:33 PM 46.4 °F - 26.6 °F 46% 30.02 in 10.0 mi Calm Calm - N/A   Clear
11:53 PM 46.4 °F 45.2 °F 26.6 °F 46% 30.02 in 10.0 mi SSE 3.5 mph - N/A   Clear